SCP
0 0 0 0 0 0 0 0 0 0 0 0 0 0 0 0 0 0 0 0 0 1 1 1 1 1 1 1 1 1 1 1 1 1 2 2 2 2 1 1 1 1 1 1 1 1 1 0 0
0 0 0 0 0 0 0 0 0 0 0 0 0 0 0 0 0 0 0 0 0 1 1 1 1 1 1 1 1 1 1 1 1 1 1 1 1 1 1 1 1 1 0 0 0 0 0 0 0
0 0 0 0 0 0 0 0 0 0 0 0 0 0 0 0 0 0 0 1 1 1 1 1 1 1 1 1 1 1 1 1 1 1 1 1 1 1 1 1 0 0 0 0 0 0 0 0 1
0 0 0 0 0 0 0 0 0 0 0 0 0 0 0 0 0 0 1 1 1 1 1 1 1 1 1 1 1 1 1 1 1 1 1 1 1 1 0 0 0 0 0 0 0 0 1 1 1
0 0 0 0 0 0 0 0 0 0 0 0 1 0 0 0 0 0 1 1 1 1 1 1 1 1 1 1 1 1 1 1 1 0 0 0 0 0 0 0 0 0 0 0 0 1 1 1 1
0 0 0 0 0 0 0 0 0 0 0 0 1 1 0 0 0 1 1 1 1 1 1 1 1 1 1 1 1 1 1 0 0 0 0 0 0 0 0 0 0 0 0 0 1 1 1 1 1
0 0 0 0 0 0 0 0 0 0 0 1 1 1 0 0 0 1 1 1 1 1 1 2 2 2 1 1 1 1 0 0 0 0 0 0 0 0 0 0 0 0 0 0 1 1 1 1 1
0 0 0 0 0 0 0 0 0 0 0 1 1 1 1 1 1 1 1 1 1 1 1 2 2 2 1 1 1 1 0 0 0 0 0 0 0 0 0 0 0 0 0 0 1 1 1 1 1
0 0 0 0 0 0 0 0 0 0 1 1 1 0 1 1 1 1 1 1 1 1 1 1 1 2 1 1 1 1 1 1 1 0 0 0 0 0 0 0 0 0 0 0 0 1 1 0 0
0 0 0 0 0 0 0 0 0 0 1 1 0 1 1 1 1 1 1 1 1 1 1 1 1 1 1 1 1 1 1 1 1 0 0 0 0 0 0 0 0 0 0 0 0 0 0 0 0
0 0 -0 0 0 0 0 0 0 0 0 0 1 1 2 2 1 1 1 1 1 1 1 1 1 2 2 2 1 1 1 1 1 0 0 0 0 0 0 0 0 0 0 0 0 0 0 0 0
0 0 0 0 0 0 0 0 0 0 0 0 1 2 2 2 2 1 1 1 1 1 1 1 1 2 2 2 2 1 1 1 1 0 0 0 0 0 0 0 0 0 0 0 0 0 0 0 0
-0 -0 0 0 0 0 0 0 0 0 0 1 1 2 3 3 2 2 1 1 1 1 1 1 1 1 2 2 2 1 1 1 1 0 0 0 0 0 0 0 0 0 0 0 0 0 0 0 0
0 0 0 0 0 0 0 0 0 0 0 1 2 3 3 3 3 3 2 1 1 1 1 1 1 1 2 2 1 1 1 1 1 0 0 0 0 0 0 0 0 0 0 0 0 0 0 0 0
0 0 0 0 0 0 0 0 0 0 1 1 2 3 3 3 3 3 3 2 2 1 1 1 1 2 2 2 1 1 1 1 1 0 0 0 0 0 0 0 0 0 0 0 0 0 0 0 0
0 0 0 0 0 0 0 0 0 0 1 1 2 2 3 3 3 3 3 3 2 2 2 2 2 2 2 2 2 1 1 1 1 1 0 0 0 0 0 0 0 0 0 0 0 0 0 0 0
0 0 0 0 0 0 0 0 0 0 1 2 2 2 3 3 4 3 3 3 3 2 2 3 3 3 3 2 2 1 1 1 1 1 1 1 1 1 0 0 0 0 0 0 0 0 0 0 0
0 0 0 0 0 0 0 0 0 0 1 2 2 3 3 4 4 3 3 4 3 3 4 4 4 4 4 3 3 2 1 1 1 1 1 0 0 0 0 0 0 0 0 0 0 0 0 0 0
0 0 0 0 0 0 0 0 0 0 1 1 2 2 3 4 4 4 4 4 4 5 5 6 6 6 5 5 4 3 2 1 0 0 0 0 0 0 0 0 0 0 0 0 0 0 0 0 0
0 0 0 0 0 0 0 0 0 0 0 1 1 2 2 3 3 4 4 4 5 6 7 7 7 7 6 6 4 3 1 1 0 0 0 0 0 0 0 0 0 0 0 0 0 0 0 0 0
0 0 0 0 0 0 0 0 0 0 0 0 1 1 1 2 3 3 3 4 5 7 8 8 8 8 7 6 4 3 1 0 0 0 0 0 0 0 0 0 0 0 0 0 0 0 0 0 0
0 0 0 0 0 0 0 0 0 0 0 0 0 1 1 1 2 3 3 4 6 8 9 9 9 8 6 5 3 2 1 0 0 0 0 0 0 0 0 0 0 0 0 0 0 0 0 0 0
0 0 0 0 0 0 0 0 0 0 0 1 1 1 1 1 2 3 3 4 6 8 9 9 7 6 4 3 2 1 0 0 0 0 0 0 0 0 0 0 0 0 0 0 0 0 0 0 0
0 0 0 0 0 0 0 0 0 1 1 1 1 2 1 1 2 3 3 4 6 8 8 7 5 4 3 2 1 0 0 0 0 0 0 0 0 0 0 0 0 0 0 0 0 0 0 0 0
0 0 0 0 0 0 0 0 0 1 1 1 1 2 2 2 2 3 4 5 6 6 6 5 3 2 1 1 0 0 0 0 0 0 0 0 0 0 0 0 0 0 0 0 0 0 0 0 0
0 0 0 0 0 0 0 0 1 2 2 2 2 2 2 2 3 3 4 5 4 4 3 2 1 1 0 0 0 0 0 0 0 0 0 0 0 0 0 0 0 0 0 0 0 0 0 0 0
0 0 0 0 0 0 0 0 1 2 2 2 2 2 1 2 2 3 3 2 2 1 1 0 0 0 0 0 0 0 0 0 0 0 0 0 0 0 0 0 0 0 0 0 0 0 0 0 0
0 0 0 0 0 0 0 0 1 2 2 2 2 1 1 1 1 1 1 1 0 0 0 0 0 0 0 0 0 0 0 0 0 0 0 0 0 0 0 0 0 0 0 0 0 0 0 0 0
0 0 0 0 0 0 0 0 1 2 2 2 2 1 1 0 0 0 0 0 0 0 0 0 0 0 0 0 0 0 0 0 0 0 0 0 0 0 0 0 0 0 0 0 0 0 0 0 0
0 0 0 0 0 0 0 0 1 2 2 2 2 1 1 0 0 0 0 0 0 0 0 0 0 0 0 0 0 0 0 0 0 0 0 0 0 0 0 0 0 0 0 0 0 0 0 0 0
Wind_Speed
1 4 3 3 6 5 4 5 4 3 2 2 4 5 5 4 4 3 1 7 11 11 8 12 14 15 15 16 15 14 14 13 13 13 12 12 12 11 11 11 10 10 10 9 9 8 9 9 9
2 4 3 5 5 1 6 5 5 4 3 3 3 4 3 2 1 4 4 6 11 11 8 10 15 15 15 15 15 15 15 14 13 12 12 11 11 10 10 10 10 9 9 9 8 7 7 7 8
2 3 5 6 4 6 5 4 3 1 4 4 3 2 2 3 4 5 5 11 10 9 7 11 17 15 14 15 16 15 15 14 13 12 12 11 10 10 9 10 10 9 9 8 7 6 6 6 7
4 5 6 5 5 7 6 4 1 3 2 3 4 3 1 2 6 6 11 13 12 9 7 11 16 16 15 15 15 15 14 14 13 13 12 10 10 9 9 9 9 9 8 7 6 5 5 5 6
5 5 4 0 6 7 7 6 3 3 3 3 5 3 1 2 6 12 13 13 12 9 7 9 15 15 15 15 15 14 14 13 12 12 11 10 9 8 8 8 8 8 7 6 5 4 4 4 4
6 6 4 4 7 7 6 6 4 5 3 4 6 4 2 3 9 11 12 10 10 10 8 8 15 17 16 16 15 14 13 13 12 11 10 9 8 7 7 7 7 6 6 5 4 3 3 3 3
5 5 5 5 4 5 5 4 6 7 6 7 9 5 2 4 8 12 10 8 8 8 8 7 8 12 15 15 15 14 13 12 11 10 9 8 8 7 8 7 7 6 5 4 3 2 1 2 2
5 5 4 4 4 5 3 1 3 7 7 5 8 8 8 8 9 10 8 7 7 7 7 7 6 7 7 9 15 15 13 12 11 10 10 9 9 8 9 7 6 6 5 4 3 1 0 1 2
4 5 3 5 6 4 1 1 1 3 6 4 5 6 6 13 14 11 7 6 7 9 7 7 7 7 7 7 11 12 13 11 10 9 10 8 4 4 4 6 7 7 6 5 3 2 1 2 4
5 4 8 6 4 3 3 2 2 4 4 3 2 3 11 17 16 15 13 12 12 13 11 8 8 8 7 7 6 5 5 5 5 4 5 3 3 3 3 4 7 7 6 4 3 2 2 2 2
7 7 6 5 5 3 4 4 2 8 5 9 11 13 19 18 16 16 16 15 15 13 12 11 10 9 8 6 5 4 3 4 4 5 4 3 3 2 2 1 2 2 2 0 2 3 2 2 2
5 5 5 4 2 3 4 4 3 7 11 10 12 18 23 22 21 19 18 16 12 12 14 12 12 10 9 6 6 5 4 4 4 4 5 4 2 2 2 1 1 1 0 0 1 1 2 3 2
5 5 5 6 7 5 5 6 5 9 8 6 12 16 22 23 20 16 14 13 12 14 14 13 13 12 10 7 6 7 6 6 6 5 5 5 3 3 2 1 1 1 1 1 1 2 3 4 5
4 4 4 5 7 5 4 5 4 9 4 10 16 19 21 21 19 15 14 14 15 15 15 14 14 13 10 8 7 6 6 5 5 5 5 6 4 3 3 2 1 1 1 2 3 4 5 5 5
2 3 6 4 3 3 2 4 5 6 6 11 16 18 18 16 16 18 19 17 16 14 14 14 14 12 11 10 8 6 5 5 4 4 5 5 4 4 3 2 2 2 3 5 5 6 5 5 5
1 1 2 6 2 2 2 5 6 4 7 10 13 15 16 15 17 17 16 13 13 12 12 13 13 12 11 9 7 4 4 4 4 3 3 5 4 4 3 3 3 4 4 4 5 4 5 5 4
4 1 1 5 2 3 1 5 6 4 7 11 12 14 15 14 14 15 15 14 13 13 12 12 11 11 10 8 6 4 3 3 3 3 3 4 5 5 5 5 5 5 5 5 5 4 3 3 3
3 2 1 3 3 4 3 6 8 4 8 11 11 13 14 16 22 17 13 13 12 11 10 11 9 9 9 6 4 3 4 3 3 3 4 6 6 8 8 7 7 6 6 5 4 5 4 3 2
3 2 2 5 4 2 4 7 9 4 5 8 9 12 15 21 20 12 11 11 11 11 11 11 10 9 9 6 6 5 4 3 4 4 6 8 9 9 8 7 7 6 5 4 3 3 5 5 3
3 2 3 6 3 1 4 8 10 5 5 8 11 14 17 18 12 11 11 11 13 13 12 11 11 9 9 6 5 4 6 5 4 4 7 8 9 9 9 8 6 5 5 4 3 3 3 3 4
4 4 4 5 6 5 3 9 9 7 2 4 7 9 12 16 16 14 13 13 11 12 13 11 10 9 8 9 8 8 6 5 3 5 5 6 9 9 8 8 7 6 4 4 3 3 4 3 3
5 6 5 2 2 4 2 4 11 7 8 5 5 5 8 11 12 12 11 9 9 9 8 8 8 8 9 10 10 10 7 5 4 4 5 6 8 8 8 8 7 6 5 5 4 3 3 4 2
7 4 4 3 3 2 2 3 11 6 7 9 9 8 8 7 7 6 5 5 6 7 8 8 9 9 8 7 8 8 8 7 6 6 7 7 6 6 7 7 7 6 4 5 5 4 4 3 3
4 4 5 5 5 2 5 6 8 4 6 10 11 11 9 5 3 6 8 10 10 10 10 10 11 10 9 8 7 7 11 11 11 9 7 6 4 4 5 6 6 5 4 4 4 4 4 3 3
4 5 4 4 3 7 3 4 7 4 5 6 9 10 8 8 10 12 12 12 11 11 11 11 12 11 9 9 7 7 9 10 9 8 7 7 5 4 4 5 4 4 4 4 4 3 3 2 2
6 10 8 5 5 5 1 5 2 3 5 6 7 8 10 12 12 12 12 11 11 11 11 10 11 10 9 10 10 8 8 6 6 7 6 5 5 4 4 4 4 4 4 4 3 3 3 3 2
7 7 8 7 3 2 5 2 0 3 6 8 9 10 11 11 12 12 12 12 11 11 10 10 10 9 10 11 11 10 9 8 8 7 6 5 4 5 5 5 5 5 5 5 5 4 4 4 3
5 7 6 7 8 5 4 2 2 2 3 6 7 9 10 10 11 12 11 11 11 11 11 11 11 12 11 10 8 9 8 8 8 8 8 6 5 6 6 6 6 6 6 6 6 5 4 5 4
4 4 4 4 5 8 5 5 1 2 2 6 7 7 8 9 10 10 10 11 11 12 11 11 11 12 11 10 10 9 9 8 9 8 8 7 7 7 7 7 7 6 6 5 5 5 5 5 4
4 4 6 5 3 4 5 4 3 0 5 8 8 8 9 9 10 10 10 10 10 10 10 10 10 10 10 9 10 10 9 9 10 9 8 8 7 6 6 6 6 6 5 5 5 4 4 4 5
Wind_Direction
158 127 115 70 49 40 282 263 252 275 229 192 139 135 150 161 189 221 119 132 132 137 145 151 150 147 144 142 139 134 129 125 121 120 120 121 123 123 124 125 125 125 123 118 111 103 94 88 84
161 134 73 61 82 346 276 256 258 238 200 119 105 101 119 156 120 125 132 137 136 135 137 148 149 146 144 142 139 136 134 132 128 125 125 125 126 127 130 134 135 136 135 132 127 118 107 96 89
141 81 87 78 133 196 246 253 239 200 144 125 113 77 134 172 154 162 155 140 132 132 136 153 149 146 144 142 140 138 137 136 135 134 134 135 136 137 141 147 149 150 149 147 142 133 118 101 89
93 55 57 89 219 229 232 249 226 125 115 97 112 97 68 160 161 158 142 142 135 136 142 154 151 148 146 145 144 141 140 140 141 144 145 145 146 148 152 156 157 157 156 153 146 134 116 97 84
63 79 78 126 241 248 240 248 232 183 168 135 118 121 35 90 121 137 146 149 146 144 145 153 152 151 150 149 148 146 146 146 148 150 152 153 154 156 157 158 160 160 161 161 156 143 118 94 77
62 75 111 223 248 258 256 229 195 207 183 136 127 135 228 147 139 151 151 150 149 149 147 154 158 156 155 155 153 152 152 153 153 155 155 156 158 160 160 161 164 167 169 167 160 139 108 80 59
114 120 176 212 247 268 259 210 190 196 187 172 141 143 227 187 168 152 146 140 142 149 152 156 161 161 161 160 159 158 158 158 158 158 158 160 164 169 171 170 171 173 173 172 166 144 88 43 19
137 126 183 222 229 253 272 301 220 177 185 156 136 165 203 193 156 139 129 131 143 155 163 162 159 157 158 162 167 166 165 165 165 167 170 175 179 182 185 179 179 180 183 189 192 197 295 337 337
109 94 203 221 210 242 284 348 275 166 131 145 170 190 200 149 144 138 133 138 160 175 177 172 166 162 160 163 174 172 171 172 173 177 184 183 182 185 191 190 192 194 197 203 209 224 284 326 346
121 164 222 223 217 252 303 267 211 129 130 163 169 148 141 149 158 163 169 175 180 186 186 181 176 172 168 173 169 163 165 167 170 172 180 166 164 181 189 207 207 207 209 217 226 253 323 7 4
168 193 229 246 244 274 295 287 209 143 184 202 189 166 154 164 172 179 183 186 189 186 186 186 183 179 178 175 163 163 157 159 170 178 175 160 162 178 192 192 241 239 229 258 4 16 24 18 357
180 230 232 261 267 296 266 267 221 193 211 202 182 165 163 175 183 187 188 191 187 185 192 189 187 185 185 178 171 169 168 170 176 182 174 161 166 182 192 196 205 177 85 66 23 23 16 19 17
216 249 250 261 288 264 260 247 234 238 235 160 154 166 176 185 189 192 190 190 187 190 193 192 190 190 186 180 177 177 180 182 180 176 176 170 173 185 189 196 182 163 117 92 42 37 49 54 53
231 242 277 285 283 270 252 268 227 258 195 160 165 180 188 191 190 189 190 193 195 196 195 192 193 192 186 185 184 183 185 180 174 177 178 176 176 178 179 180 146 106 99 87 78 74 76 67 64
277 294 317 287 260 255 210 298 245 264 151 169 180 188 193 196 193 198 198 196 197 198 195 193 194 192 189 189 188 182 180 172 177 180 178 177 178 178 169 150 115 96 97 96 89 80 73 68 64
7 58 324 297 299 295 171 263 275 274 164 186 193 194 198 203 204 206 202 198 194 193 194 193 195 191 190 188 182 174 169 169 175 171 172 178 174 161 137 116 100 96 91 90 88 79 73 59 61
24 83 239 300 356 27 87 257 277 266 188 199 201 203 206 209 216 213 205 200 195 193 190 191 194 186 185 179 166 156 147 152 149 145 148 143 130 121 110 98 89 86 78 70 79 65 75 64 57
229 222 252 281 313 8 343 278 286 254 207 212 209 210 211 214 220 213 206 199 194 190 187 189 190 178 169 159 141 124 106 100 96 101 109 110 103 103 101 94 86 83 81 72 73 78 63 61 43
194 198 269 272 284 319 297 291 290 276 230 230 226 220 220 223 225 211 205 197 190 188 186 186 186 176 166 161 155 144 123 88 72 80 96 100 102 101 99 99 88 83 87 92 101 95 71 44 17
191 227 274 292 334 332 306 296 287 264 225 228 226 223 225 231 228 213 205 199 196 193 187 184 185 176 170 158 128 103 96 84 75 81 84 96 102 104 105 105 104 98 99 91 86 108 102 53 27
195 198 229 264 338 351 313 311 304 300 278 265 251 240 235 229 224 215 207 205 196 193 186 183 175 163 151 130 113 105 89 78 77 90 91 95 102 101 107 114 114 113 113 108 101 109 121 118 52
233 223 206 223 7 301 18 299 294 300 321 300 290 282 260 243 229 219 209 200 193 185 162 153 145 138 133 132 137 138 131 130 133 123 115 109 105 108 111 113 114 118 122 122 114 99 109 120 113
213 209 190 202 187 277 284 195 280 333 324 318 332 332 303 275 240 218 192 160 129 120 119 116 112 107 107 110 120 118 116 118 125 122 119 107 101 106 116 119 119 121 120 117 112 106 102 104 122
179 71 47 53 90 234 230 171 270 318 315 320 336 347 333 324 53 79 85 95 95 95 98 101 102 95 93 95 102 123 130 136 139 135 126 113 106 101 107 112 112 117 117 119 121 120 119 118 120
132 105 23 357 31 240 230 178 244 326 358 350 351 4 19 53 76 84 87 89 92 92 94 97 101 101 102 100 96 111 126 133 134 131 128 126 118 107 107 109 113 114 118 124 124 118 117 120 121
183 149 163 196 212 258 234 213 229 39 49 46 47 49 57 67 75 80 83 85 87 86 87 93 99 104 104 104 102 102 108 112 115 117 123 121 118 114 112 107 105 101 101 100 92 80 73 72 66
166 189 182 155 174 230 266 255 349 57 61 59 59 61 63 69 73 75 74 74 77 78 78 85 93 92 91 98 105 106 105 108 110 108 103 100 103 108 101 93 85 78 78 81 81 72 65 64 52
162 152 110 136 155 212 256 230 232 326 53 67 65 66 68 70 72 72 72 73 73 75 75 75 81 85 85 87 92 98 99 104 107 105 100 96 89 88 89 84 82 78 77 82 83 78 67 62 41
111 115 127 134 160 163 212 250 243 262 154 105 83 72 71 71 73 74 75 74 76 77 78 81 83 85 85 86 88 91 90 92 94 93 92 91 87 89 91 94 93 90 86 83 84 77 62 49 25
121 145 146 152 198 174 171 232 326 144 120 109 94 77 70 70 71 75 78 80 80 81 82 83 85 88 90 92 92 89 89 89 88 88 88 90 90 91 99 103 102 98 92 85 82 70 53 34 10